Skip Page Navigation
NASA JPL Caltech
NASA Logo - Jet Propulsion Laboratory + View the NASA Portal
+ Center for Near-Earth Object Studies
JPL Home Earth Solar System Stars & Galaxies Technology
JPL Solar System Dynamics
BODIES ORBITS EPHEMERIDES TOOLS PHYSICAL DATA DISCOVERY FAQ SITE MAP
JPL Small-Body Database Browser
Search: [ help ]  
103030 (1999 XH115)
Classification: Main-belt Asteroid          SPK-ID: 2103030
Ephemeris | Orbit Diagram | Orbital Elements | Mission Design | Physical Parameters | Discovery Circumstances | Close-Approach Data ]

[ show orbit diagram ]
Orbital Elements at Epoch 2459200.5 (2020-Dec-17.0) TDB
Reference: JPL 24 (heliocentric ecliptic J2000)
 Element Value Uncertainty (1-sigma)   Units 
e .1572856086475117 4.4095e-08  
a 2.969776356984307 1.8396e-08 au
q 2.502673275129041 1.3301e-07 au
i 3.624991859561454 4.6645e-06 deg
node 6.202253901005365 6.59e-05 deg
peri 107.8474575274489 6.8457e-05 deg
M 359.5462950940758 1.5696e-05 deg
tp 2459202.855890058711
(2020-Dec-19.35589006)
8.1506e-05 TDB
period 1869.321689190086
5.12
1.7369e-05
4.755e-08
d
yr
n .1925832252853044 1.7894e-09 deg/d
Q 3.436879438839575 2.1289e-08 au
  Orbit Determination Parameters
   # obs. used (total)      739  
   data-arc span      9552 days (26.15 yr)  
   first obs. used      1994-11-27  
   last obs. used      2021-01-21  
   planetary ephem.      DE431  
   SB-pert. ephem.      SB431-N16  
   condition code      0  
   norm. resid. RMS      .5413  
   source      ORB  
   producer      Otto Matic  
   solution date      2021-Feb-24 08:33:06  

Additional Information
 Earth MOID = 1.52195 au 
 Jupiter MOID = 1.67388 au 
 T_jup = 3.241 
[ show covariance matrix ]

Ephemeris | Orbit Diagram | Orbital Elements | Mission Design | Physical Parameters | Discovery Circumstances | Close-Approach Data ]

Physical Parameter Table
Parameter Symbol Value Units Sigma Reference Notes
absolute magnitude H 15.44   n/a E2021B55  
diameter diameter 4.844 km 0.293 urn:nasa:pds:neowise_diameters_albedos::2.0[mainbelt] (http://adsabs.harvard.edu/abs/2011ApJ...741...68M)  
geometric albedo albedo 0.057   0.007 urn:nasa:pds:neowise_diameters_albedos::2.0[mainbelt] (http://adsabs.harvard.edu/abs/2011ApJ...741...68M)  

103030 (1999 XH115)          Discovered 1999-Dec-04 by CSS at Catalina
Reference: 20051019/Numbers.arcLast Updated: 2005-10-26

[ show close-approach data ]
Alternate Designations
 1999 XH115 = 1994 WY10 
Ephemeris | Orbit Diagram | Orbital Elements | Mission Design | Physical Parameters | Discovery Circumstances | Close-Approach Data ]
ABOUT SSD CREDITS/AWARDS PRIVACY/COPYRIGHT GLOSSARY LINKS
FirstGov 2021-Apr-11 17:19 UT
(server date/time)  
NASA Home Page
Site Manager:   Ryan S. Park
Webmaster  Alan B. Chamberlin